UAE51N OMDB-KSFO

Flight info

Callsign UAE51N
Flight time N/A
Altitude 31000
Route IVURO M677 LALDO B505 PG G325 ZB/N0503F330 G325 PS P500 ATROL/N0496F320 P500 GERRY/N0499F330 P500 MOTMO/N0494F320 P500 FIRUZ/K0915F320 Z407 POMIR L139 ENOVO/K0915F340 L139 MAGOL P178 TIMKA M168 BEDOR W332 EDETO M168 ARHIG T522 BEBLU N167 TINRI/K0913F350 L165 BELEG/K0900F340 L165 BURIB/K0917F360 L165 ABERI/M084F360 DCT 89N050W/N0488F360 85N114W/N0500F380 80N118W 75N119W/N0488F370 70N120W/N0489F390 65N120W 60N121W 55N123W DCT ELIDI/N0481F400 DCT KEINN/N0477F390 DCT NUTBE DCT VIXOR DCT ELMAA DCT FAMUK Q3 FELIX Q801 HARPR Q5 HUPTU DCT MRRLO BDEGA4
Aircraft A388/J-SADE2E3FGHIJ3J4J5M1RWXY/LB1D1

Departure

Time 2026-05-05 07:59
Airport Dubai International Airport (OMDB)

Arrival

Time N/A
Airport San Francisco International Airport (KSFO)
Time Latitude Longitude Altitude Speed Heading
2026-05-05 07:45 25.24840 55.36365 27 ft 0 kts 211°
2026-05-05 07:46 25.24850 55.36372 26 ft 2 kts 208°
2026-05-05 07:46 25.24863 55.36379 25 ft 2 kts 206°
2026-05-05 07:47 25.24876 55.36385 26 ft 2 kts 202°
2026-05-05 07:47 25.24890 55.36390 24 ft 2 kts 196°
2026-05-05 07:47 25.24906 55.36393 25 ft 2 kts 186°
2026-05-05 07:47 25.24920 55.36393 25 ft 2 kts 174°
2026-05-05 07:48 25.24931 55.36390 26 ft 2 kts 161°
2026-05-05 07:48 25.24945 55.36380 25 ft 2 kts 141°
2026-05-05 07:48 25.24954 55.36369 25 ft 1 kts 128°
2026-05-05 07:48 25.24956 55.36365 25 ft 0 kts 126°
2026-05-05 07:52 25.24944 55.36387 24 ft 9 kts 121°
2026-05-05 07:52 25.24902 55.36463 27 ft 13 kts 121°
2026-05-05 07:53 25.24851 55.36557 27 ft 15 kts 121°
2026-05-05 07:53 25.24801 55.36664 27 ft 16 kts 107°
2026-05-05 07:53 25.24777 55.36778 28 ft 15 kts 102°
2026-05-05 07:53 25.24739 55.36880 29 ft 14 kts 119°
2026-05-05 07:54 25.24748 55.36942 30 ft 7 kts 32°
2026-05-05 07:54 25.24796 55.36970 30 ft 9 kts 29°
2026-05-05 07:54 25.24857 55.37011 30 ft 11 kts 32°
2026-05-05 07:54 25.24922 55.37055 30 ft 11 kts 31°
2026-05-05 07:55 25.25001 55.37108 30 ft 14 kts 31°
2026-05-05 07:55 25.25069 55.37169 30 ft 10 kts 75°
2026-05-05 07:55 25.25043 55.37248 31 ft 17 kts 122°
2026-05-05 07:55 25.24972 55.37376 34 ft 19 kts 121°
2026-05-05 07:56 25.24907 55.37493 37 ft 17 kts 121°
2026-05-05 07:56 25.24838 55.37617 40 ft 23 kts 121°
2026-05-05 07:56 25.24757 55.37763 43 ft 21 kts 122°
2026-05-05 07:56 25.24683 55.37894 46 ft 19 kts 122°
2026-05-05 07:57 25.24616 55.38014 45 ft 18 kts 122°
2026-05-05 07:57 25.24560 55.38119 45 ft 10 kts 98°
2026-05-05 07:57 25.24596 55.38167 46 ft 10 kts 25°
2026-05-05 07:57 25.24666 55.38208 48 ft 11 kts 31°
2026-05-05 07:58 25.24718 55.38200 45 ft 7 kts 307°
2026-05-05 07:58 25.24751 55.38138 45 ft 16 kts 300°
2026-05-05 07:58 25.24916 55.37837 43 ft 80 kts 301°
2026-05-05 07:58 25.25318 55.37114 28 ft 138 kts 301°
2026-05-05 07:59 25.25889 55.36080 28 ft 173 kts 301°
2026-05-05 07:59 25.26545 55.34901 140 ft 184 kts 303°
2026-05-05 07:59 25.27225 55.33714 527 ft 182 kts 303°
2026-05-05 07:59 25.27895 55.32506 883 ft 186 kts 301°
2026-05-05 08:00 25.28560 55.31252 1178 ft 197 kts 301°
2026-05-05 08:00 25.29298 55.29904 1526 ft 212 kts 304°
2026-05-05 08:00 25.30448 55.28797 1608 ft 234 kts 346°
2026-05-05 08:00 25.32039 55.28739 2218 ft 229 kts 18°
2026-05-05 08:01 25.33527 55.29208 3071 ft 215 kts 15°
2026-05-05 08:01 25.34985 55.29481 3803 ft 216 kts
2026-05-05 08:01 25.36555 55.29639 4094 ft 238 kts
2026-05-05 08:01 25.38279 55.29726 4450 ft 254 kts
2026-05-05 08:02 25.39410 55.30003 4844 ft 253 kts 26°
2026-05-05 08:02 25.42367 55.33215 5907 ft 271 kts 52°
2026-05-05 08:02 25.43553 55.34846 6300 ft 277 kts 52°
2026-05-05 08:03 25.44769 55.36504 6775 ft 278 kts 52°
2026-05-05 08:03 25.45994 55.38170 7278 ft 280 kts 52°
2026-05-05 08:03 25.47228 55.39852 7788 ft 281 kts 52°
2026-05-05 08:03 25.48462 55.41537 8289 ft 283 kts 52°
2026-05-05 08:04 25.49688 55.43248 8791 ft 285 kts 53°
2026-05-05 08:04 25.50900 55.44994 9316 ft 286 kts 53°
2026-05-05 08:04 25.52108 55.46753 9811 ft 288 kts 56°
2026-05-05 08:04 25.52926 55.48773 10179 ft 293 kts 79°
2026-05-05 08:05 25.52924 55.51075 10302 ft 309 kts 103°
2026-05-05 08:05 25.52054 55.53305 10446 ft 323 kts 121°
2026-05-05 08:05 25.50794 55.55429 10565 ft 337 kts 123°
2026-05-05 08:05 25.49447 55.57602 10859 ft 345 kts 123°
2026-05-05 08:06 25.48107 55.59818 11276 ft 348 kts 122°
2026-05-05 08:06 25.46783 55.62072 11628 ft 354 kts 122°
2026-05-05 08:06 25.45452 55.64381 12024 ft 357 kts 122°
2026-05-05 08:06 25.44115 55.66721 12411 ft 362 kts 122°
2026-05-05 08:07 25.42939 55.69158 12792 ft 366 kts 113°
2026-05-05 08:07 25.42082 55.71828 13139 ft 372 kts 104°
2026-05-05 08:07 25.41505 55.74628 13563 ft 375 kts 102°
2026-05-05 08:07 25.40921 55.77448 13938 ft 378 kts 103°
2026-05-05 08:08 25.40316 55.80288 14344 ft 379 kts 103°
2026-05-05 08:08 25.39706 55.83131 14784 ft 380 kts 103°
2026-05-05 08:08 25.39092 55.85992 15165 ft 383 kts 103°
2026-05-05 08:08 25.38685 55.87890 15410 ft 385 kts 103°
2026-05-05 08:09 25.38059 55.90811 15671 ft 391 kts 103°
2026-05-05 08:09 25.37433 55.93735 16161 ft 390 kts 103°
2026-05-05 08:09 25.36599 55.97631 16600 ft 396 kts 103°
2026-05-05 08:09 25.35964 56.00596 17044 ft 397 kts 103°
2026-05-05 08:10 25.35531 56.02615 17288 ft 398 kts 103°
2026-05-05 08:10 25.34896 56.05571 17640 ft 401 kts 103°
2026-05-05 08:10 25.34247 56.08593 18019 ft 404 kts 103°
2026-05-05 08:10 25.33596 56.11618 18391 ft 405 kts 103°
2026-05-05 08:11 25.32947 56.14666 18720 ft 408 kts 102°
2026-05-05 08:11 25.32559 56.17779 19077 ft 409 kts 94°
2026-05-05 08:11 25.32322 56.20934 19405 ft 412 kts 95°
2026-05-05 08:11 25.32069 56.24062 19764 ft 414 kts 95°
2026-05-05 08:12 25.31804 56.27242 20132 ft 417 kts 95°
2026-05-05 08:12 25.31536 56.30438 20465 ft 419 kts 95°
2026-05-05 08:12 25.31266 56.33658 20822 ft 421 kts 95°
2026-05-05 08:12 25.30994 56.36898 21121 ft 424 kts 95°
2026-05-05 08:13 25.30744 56.40162 21448 ft 427 kts 92°
2026-05-05 08:13 25.30657 56.43445 21758 ft 429 kts 91°
2026-05-05 08:13 25.30566 56.46749 22075 ft 431 kts 91°
2026-05-05 08:13 25.30470 56.50069 22383 ft 433 kts 91°
2026-05-05 08:14 25.30370 56.53402 22693 ft 435 kts 91°
2026-05-05 08:14 25.30245 56.56747 22925 ft 437 kts 95°
2026-05-05 08:14 25.29783 56.60075 23148 ft 439 kts 103°
2026-05-05 08:14 25.28916 56.63311 23380 ft 440 kts 111°
2026-05-05 08:15 25.27733 56.66429 23567 ft 441 kts 114°
2026-05-05 08:15 25.26534 56.69558 23747 ft 443 kts 113°
2026-05-05 08:15 25.25343 56.72713 23946 ft 445 kts 113°
2026-05-05 08:15 25.24154 56.75864 24136 ft 447 kts 113°
2026-05-05 08:16 25.22967 56.79003 24317 ft 448 kts 114°
2026-05-05 08:16 25.21761 56.82185 24487 ft 450 kts 114°
2026-05-05 08:16 25.20548 56.85382 24666 ft 452 kts 114°
2026-05-05 08:16 25.19326 56.88594 24830 ft 454 kts 114°
2026-05-05 08:17 25.18100 56.91818 25024 ft 456 kts 114°
2026-05-05 08:17 25.16868 56.95052 25212 ft 458 kts 114°
2026-05-05 08:17 25.15633 56.98293 25378 ft 459 kts 114°
2026-05-05 08:17 25.14390 57.01549 25625 ft 459 kts 114°
2026-05-05 08:18 25.13146 57.04808 25806 ft 462 kts 114°
2026-05-05 08:18 25.11896 57.08079 25990 ft 464 kts 114°
2026-05-05 08:18 25.10641 57.11361 26188 ft 465 kts 114°
2026-05-05 08:18 25.09378 57.14661 26332 ft 468 kts 114°
2026-05-05 08:19 25.08109 57.17975 26560 ft 470 kts 114°
2026-05-05 08:19 25.06832 57.21306 26742 ft 472 kts 114°
2026-05-05 08:19 25.05568 57.24603 26938 ft 474 kts 114°
2026-05-05 08:19 25.04278 57.27964 27130 ft 475 kts 114°
2026-05-05 08:20 25.02987 57.31324 27349 ft 477 kts 114°
2026-05-05 08:20 25.01687 57.34706 27556 ft 479 kts 114°
2026-05-05 08:20 25.00381 57.38101 27773 ft 481 kts 114°
2026-05-05 08:20 24.99066 57.41516 27958 ft 484 kts 114°
2026-05-05 08:21 24.97750 57.44932 28237 ft 485 kts 114°
2026-05-05 08:21 24.96444 57.48318 28424 ft 487 kts 114°
2026-05-05 08:21 24.95096 57.51810 28668 ft 489 kts 114°
2026-05-05 08:21 24.93777 57.55226 28870 ft 492 kts 114°
2026-05-05 08:22 24.92435 57.58698 29091 ft 494 kts 114°
2026-05-05 08:22 24.91084 57.62188 29318 ft 496 kts 114°
2026-05-05 08:22 24.89725 57.65696 29550 ft 498 kts 114°
2026-05-05 08:22 24.88356 57.69230 29718 ft 502 kts 114°
2026-05-05 08:23 24.86981 57.72776 29950 ft 504 kts 114°
2026-05-05 08:23 24.85599 57.76334 30167 ft 505 kts 114°
2026-05-05 08:23 24.84277 57.79934 30368 ft 508 kts 109°
2026-05-05 08:23 24.83333 57.83692 30569 ft 511 kts 102°
2026-05-05 08:24 24.82810 57.87552 30819 ft 511 kts 94°
2026-05-05 08:24 24.82519 57.91429 30813 ft 519 kts 95°
2026-05-05 08:24 24.81878 57.99503 30808 ft 533 kts 95°
2026-05-05 08:25 24.81213 58.07654 30797 ft 539 kts 95°
2026-05-05 08:25 24.80540 58.15863 30802 ft 539 kts 95°
2026-05-05 08:26 24.79863 58.24086 30800 ft 540 kts 95°
2026-05-05 08:26 24.79181 58.32309 30801 ft 539 kts 95°
2026-05-05 08:27 24.78494 58.40537 30809 ft 539 kts 95°
2026-05-05 08:27 24.77802 58.48770 30811 ft 540 kts 95°
2026-05-05 08:28 24.77106 58.56990 30801 ft 540 kts 95°
2026-05-05 08:28 24.76409 58.65179 30808 ft 540 kts 95°
2026-05-05 08:29 24.75704 58.73402 30807 ft 540 kts 95°
2026-05-05 08:30 24.74638 58.85740 30808 ft 540 kts 95°
2026-05-05 08:30 24.73922 58.93964 30807 ft 540 kts 95°
2026-05-05 08:31 24.73201 59.02187 30809 ft 540 kts 95°
2026-05-05 08:31 24.72475 59.10412 30810 ft 540 kts 95°
2026-05-05 08:32 24.71745 59.18637 30804 ft 540 kts 95°
2026-05-05 08:32 24.71013 59.26857 30802 ft 540 kts 95°
2026-05-05 08:33 24.70280 59.35030 30808 ft 541 kts 95°
2026-05-05 08:33 24.69538 59.43258 30809 ft 541 kts 95°
2026-05-05 08:34 24.68791 59.51485 30804 ft 540 kts 95°
2026-05-05 08:34 24.68040 59.59702 30806 ft 539 kts 95°
2026-05-05 08:35 24.67285 59.67915 30804 ft 540 kts 95°
2026-05-05 08:35 24.66526 59.76127 30803 ft 540 kts 95°
2026-05-05 08:36 24.65762 59.84331 30807 ft 540 kts 95°
2026-05-05 08:36 24.64993 59.92553 30810 ft 541 kts 95°
2026-05-05 08:37 24.64222 60.00737 30805 ft 541 kts 95°
2026-05-05 08:37 24.63444 60.08958 30805 ft 541 kts 95°
2026-05-05 08:38 24.62660 60.17189 30805 ft 541 kts 95°
2026-05-05 08:38 24.61871 60.25416 30806 ft 541 kts 95°
2026-05-05 08:39 24.61079 60.33640 30809 ft 541 kts 95°
2026-05-05 08:39 24.60281 60.41869 30805 ft 541 kts 95°
2026-05-05 08:40 24.59486 60.50031 30809 ft 541 kts 95°
2026-05-05 08:40 24.58680 60.58256 30808 ft 541 kts 95°
2026-05-05 08:41 24.58262 60.66486 30811 ft 540 kts 88°
2026-05-05 08:41 24.58290 60.74734 30812 ft 540 kts 88°
2026-05-05 08:42 24.58291 60.82987 30812 ft 540 kts 88°
2026-05-05 08:42 24.58286 60.91246 30812 ft 540 kts 88°
2026-05-05 08:43 24.58277 60.99447 30810 ft 540 kts 88°
2026-05-05 08:43 24.58265 61.07703 30815 ft 541 kts 88°
2026-05-05 08:44 24.58247 61.15971 30814 ft 540 kts 88°
2026-05-05 08:44 24.58225 61.24235 30818 ft 541 kts 89°
2026-05-05 08:45 24.58617 61.32455 30815 ft 538 kts 78°
2026-05-05 08:45 24.60679 61.40287 30816 ft 532 kts 64°
2026-05-05 08:46 24.63419 61.47851 30815 ft 533 kts 65°
2026-05-05 08:46 24.65666 61.54162 30815 ft 533 kts 65°
2026-05-05 08:47 24.68805 61.62976 30817 ft 532 kts 65°
2026-05-05 08:47 24.71510 61.70570 30818 ft 533 kts 65°
2026-05-05 08:48 24.74207 61.78159 30818 ft 533 kts 65°
2026-05-05 08:48 24.76903 61.85757 30818 ft 533 kts 65°
2026-05-05 08:49 24.79594 61.93354 30818 ft 533 kts 65°
2026-05-05 08:49 24.82265 62.00911 30815 ft 533 kts 65°
2026-05-05 08:50 24.84949 62.08517 30811 ft 533 kts 65°
2026-05-05 08:50 24.87628 62.16124 30812 ft 533 kts 65°
2026-05-05 08:51 24.90306 62.23743 30815 ft 533 kts 65°
2026-05-05 08:51 24.92977 62.31352 30813 ft 532 kts 65°
2026-05-05 08:52 24.95644 62.38969 30813 ft 532 kts 65°
2026-05-05 08:52 24.98306 62.46583 30813 ft 532 kts 65°
2026-05-05 08:53 25.00966 62.54206 30816 ft 533 kts 65°
2026-05-05 08:53 25.03611 62.61803 30811 ft 533 kts 65°
2026-05-05 08:54 25.06262 62.69431 30811 ft 533 kts 65°
2026-05-05 08:54 25.08911 62.77067 30807 ft 533 kts 66°
2026-05-05 08:55 25.11563 62.84726 30817 ft 536 kts 65°
2026-05-05 08:55 25.14219 62.92412 30800 ft 535 kts 65°
2026-05-05 08:56 25.16868 63.00093 30802 ft 535 kts 65°
2026-05-05 08:56 25.19068 63.06483 30800 ft 535 kts 65°
2026-05-05 08:57 25.21713 63.14179 30811 ft 536 kts 65°
2026-05-05 08:57 25.24359 63.21890 30786 ft 536 kts 65°
2026-05-05 08:58 25.27103 63.29529 30784 ft 532 kts 58°
2026-05-05 08:58 25.29055 63.32969 30783 ft 525 kts 47°
2026-05-05 08:58 25.31466 63.35872 30784 ft 516 kts 36°
2026-05-05 08:58 25.34353 63.38254 30784 ft 507 kts 25°
2026-05-05 08:59 25.37462 63.39923 30786 ft 499 kts 14°
2026-05-05 08:59 25.44032 63.42333 30775 ft 497 kts 13°
2026-05-05 09:00 25.50514 63.45059 30774 ft 499 kts 17°
2026-05-05 09:00 25.56933 63.48035 30774 ft 498 kts 17°
2026-05-05 09:01 25.63272 63.51022 30769 ft 498 kts 17°
2026-05-05 09:01 25.69665 63.54034 30770 ft 499 kts 17°
2026-05-05 09:02 25.76053 63.57043 30777 ft 498 kts 17°
2026-05-05 09:02 25.82435 63.60053 30782 ft 499 kts 17°
2026-05-05 09:03 25.88831 63.63073 30809 ft 499 kts 17°
2026-05-05 09:03 25.95221 63.66094 30794 ft 499 kts 17°
2026-05-05 09:04 26.01606 63.69115 30812 ft 499 kts 17°
2026-05-05 09:04 26.07949 63.72109 30808 ft 498 kts 17°
2026-05-05 09:05 26.14337 63.75125 30814 ft 498 kts 17°
2026-05-05 09:05 26.20703 63.78137 30822 ft 496 kts 17°
2026-05-05 09:06 26.27076 63.81155 30827 ft 497 kts 17°
2026-05-05 09:06 26.33443 63.84174 30826 ft 497 kts 17°
2026-05-05 09:07 26.39813 63.87198 30835 ft 497 kts 17°
2026-05-05 09:07 26.46145 63.90208 30835 ft 497 kts 16°
2026-05-05 09:08 26.52499 63.93233 30840 ft 495 kts 16°
2026-05-05 09:08 26.58842 63.96255 30840 ft 496 kts 16°
2026-05-05 09:09 26.65202 63.99289 30853 ft 497 kts 17°
2026-05-05 09:09 26.71555 64.02324 30854 ft 496 kts 17°
2026-05-05 09:10 26.77903 64.05360 30869 ft 496 kts 16°
2026-05-05 09:10 26.84286 64.08411 30864 ft 505 kts 16°
2026-05-05 09:11 26.90839 64.11578 30880 ft 523 kts 19°
2026-05-05 09:11 26.94068 64.13596 30875 ft 536 kts 26°
2026-05-05 09:11 26.97068 64.16034 30879 ft 543 kts 33°
2026-05-05 09:12 27.02528 64.22001 30875 ft 550 kts 39°
2026-05-05 09:12 27.07892 64.28127 30880 ft 549 kts 39°
2026-05-05 09:13 27.13252 64.34253 30877 ft 549 kts 39°
2026-05-05 09:13 27.18598 64.40389 30883 ft 549 kts 39°
2026-05-05 09:14 27.23942 64.46534 30884 ft 549 kts 39°
2026-05-05 09:14 27.29277 64.52680 30880 ft 549 kts 39°
2026-05-05 09:15 27.34583 64.58799 30880 ft 549 kts 39°
2026-05-05 09:15 27.39923 64.64966 30881 ft 549 kts 39°
2026-05-05 09:16 27.45256 64.71136 30873 ft 549 kts 39°
2026-05-05 09:16 27.50588 64.77312 30878 ft 549 kts 39°
2026-05-05 09:17 27.55913 64.83491 30865 ft 549 kts 39°
2026-05-05 09:17 27.61211 64.89645 30865 ft 549 kts 39°
2026-05-05 09:18 27.66534 64.95840 30864 ft 549 kts 39°
2026-05-05 09:18 27.71854 65.02040 30857 ft 548 kts 39°
2026-05-05 09:19 27.77161 65.08235 30854 ft 547 kts 39°
2026-05-05 09:19 27.82422 65.14382 30847 ft 548 kts 39°
2026-05-05 09:20 27.87720 65.20583 30851 ft 547 kts 39°
2026-05-05 09:20 27.93008 65.26782 30855 ft 547 kts 39°
2026-05-05 09:21 27.98293 65.32989 30845 ft 546 kts 39°
2026-05-05 09:21 28.03560 65.39182 30847 ft 546 kts 39°
2026-05-05 09:22 28.08786 65.45333 30853 ft 546 kts 39°
2026-05-05 09:22 28.14056 65.51552 30846 ft 546 kts 39°
2026-05-05 09:23 28.19318 65.57766 30849 ft 546 kts 39°
2026-05-05 09:23 28.24568 65.63978 30847 ft 544 kts 40°
2026-05-05 09:24 28.29810 65.70188 30846 ft 544 kts 40°
2026-05-05 09:24 28.35052 65.76408 30883 ft 545 kts 40°
2026-05-05 09:25 28.40284 65.82625 30880 ft 545 kts 40°
2026-05-05 09:25 28.45492 65.88823 30891 ft 545 kts 40°
2026-05-05 09:26 28.50718 65.95052 30898 ft 544 kts 40°
2026-05-05 09:26 28.55939 66.01285 30917 ft 544 kts 40°
2026-05-05 09:27 28.61163 66.07534 30917 ft 544 kts 40°
2026-05-05 09:27 28.66381 66.13780 30932 ft 545 kts 40°
2026-05-05 09:28 28.71596 66.20035 30931 ft 544 kts 40°
2026-05-05 09:28 28.76803 66.26291 30954 ft 544 kts 40°
2026-05-05 09:29 28.81982 66.32520 30936 ft 545 kts 40°
2026-05-05 09:29 28.87191 66.38798 30950 ft 544 kts 40°
2026-05-05 09:30 28.92397 66.45081 30949 ft 544 kts 40°
2026-05-05 09:30 28.97594 66.51362 30957 ft 545 kts 40°
2026-05-05 09:31 29.02803 66.57668 30970 ft 544 kts 40°
2026-05-05 09:31 29.08000 66.63951 30956 ft 543 kts 40°
2026-05-05 09:32 29.13167 66.70189 30958 ft 543 kts 40°